Starlink 31782

operational
NORAD ID: 59606 Int'l Des: 2024-080 Owner: SPXS Country: US Constellation: starlink
LEOCIRCULAR

About Starlink 31782

Description loading...

Live Position

Loading 3D Globe...

Upcoming Passes

Altitude History

Altitude vs Time

uPlot chart will show altitude changes over time

Two-Line Element Set

1 59606U 24080F 26036.49070563 .00000839 00000-0 39993-4 0 9998
2 59606 43.0006 223.6033 0001064 280.1048 79.9684 15.27576865 99568
Epoch: Feb 5, 2026 • Age: 14 hours

Current Status

Altitude 495.2 km
Velocity 7.62 km/s
Sub-Earth Point -41.94°S, 44.27°W
Launch Date Apr 28, 2024
Age 1.7 years
Type internet

Technical Details

Classification Payload
Mass 730.00 kg
Dry Mass 700.00 kg
Total Mass 730.00 kg
Length 0.30 m
Diameter 4.10 m
Span 29.00 m
Shape Box + pan
Manufacturer SPXS
Bus Type Starlink V2M
Phase Status In Orbit
Owner/State SPXS/US

Large Constellations

Loading constellations...